DW0398 Weather Reports


time (UTC)temp
C
wind
direction
speed
KPH
gust
KPH
rain 1hr
cm
rain 24hr
cm
rain mn
cm
humidity
%
barometer
mb
20260504030804 6 252 0.0 0.0 0.00 0.00 0.00 70 1014.4
20260504030304 6 251 0.0 0.0 0.00 0.00 0.00 69 1014.4
20260504025804 7 251 0.0 0.0 0.00 0.00 0.00 66 1014.4
20260504025304 7 251 0.0 0.0 0.00 0.00 0.00 66 1014.5
20260504024304 7 251 0.0 0.0 0.00 0.00 0.00 65 1014.5
20260504023804 7 251 0.0 0.0 0.00 0.00 0.00 65 1014.5
20260504023305 7 251 0.0 1.6 0.00 0.00 0.00 64 1014.6
20260504022804 7 251 0.0 1.6 0.00 0.00 0.00 65 1014.6
20260504022305 7 251 0.0 0.0 0.00 0.00 0.00 64 1014.6
20260504021804 8 251 0.0 0.0 0.00 0.00 0.00 63 1014.6
20260504021305 8 251 0.0 0.0 0.00 0.00 0.00 61 1014.6
20260504020304 8 251 0.0 1.6 0.00 0.00 0.00 60 1014.5
20260504015804 9 251 0.0 0.0 0.00 0.00 0.00 59 1014.6
20260504015304 9 251 0.0 1.6 0.00 0.00 0.00 59 1014.6
20260504014804 10 251 0.0 0.0 0.00 0.00 0.00 58 1014.6
20260504014304 10 251 0.0 1.6 0.00 0.00 0.00 57 1014.6
20260504013804 10 251 0.0 3.2 0.00 0.00 0.00 57 1014.5
20260504013304 10 242 0.0 1.6 0.00 0.00 0.00 57 1014.5
20260504012805 10 242 0.0 1.6 0.00 0.00 0.00 57 1014.4
20260504011804 10 257 0.0 1.6 0.00 0.00 0.00 56 1014.4
20260504011305 10 257 0.0 3.2 0.00 0.00 0.00 56 1014.3
20260504010804 11 269 0.0 1.6 0.00 0.00 0.00 56 1014.4
20260504010304 11 259 0.0 1.6 0.00 0.00 0.00 55 1014.4
20260504005305 11 226 0.0 1.6 0.00 0.00 0.00 54 1014.4
20260504004804 11 226 1.6 4.8 0.00 0.00 0.00 53 1014.3
20260504004304 11 254 0.0 4.8 0.00 0.00 0.00 53 1014.4
20260504003804 11 245 1.6 4.8 0.00 0.00 0.00 52 1014.3
20260504003304 11 249 0.0 4.8 0.00 0.00 0.00 52 1014.3
20260504002804 12 262 1.6 4.8 0.00 0.00 0.00 52 1014.3
20260504002304 12 269 3.2 4.8 0.00 0.00 0.00 52 1014.3
20260504001304 12 242 3.2 8.0 0.00 0.00 0.00 51 1014.3
20260504000804 12 246 1.6 4.8 0.00 0.00 0.00 52 1014.3
20260504000304 12 229 1.6 4.8 0.00 0.00 0.00 50 1014.4
20260503235804 12 235 1.6 4.8 0.00 0.00 0.00 50 1014.3
20260503235304 12 265 1.6 4.8 0.00 0.00 0.00 51 1014.3
20260503234304 12 265 4.8 11.3 0.00 0.00 0.00 49 1014.4
20260503233804 12 278 3.2 11.3 0.00 0.00 0.00 49 1014.3
20260503233304 12 276 9.7 16.1 0.00 0.00 0.00 48 1014.3
20260503232804 13 252 4.8 16.1 0.00 0.00 0.00 47 1014.3
20260503232305 13 239 8.0 16.1 0.00 0.00 0.00 47 1014.3
20260503231304 13 260 9.7 19.3 0.00 0.00 0.00 46 1014.3
20260503230804 13 274 9.7 19.3 0.00 0.00 0.00 46 1014.3
20260503230304 13 266 11.3 24.1 0.00 0.00 0.00 45 1014.3
20260503225805 13 278 8.0 14.5 0.00 0.00 0.00 47 1014.3
20260503225305 13 274 8.0 19.3 0.00 0.00 0.00 44 1014.3
20260503224304 13 238 4.8 14.5 0.00 0.00 0.00 45 1014.3
20260503223804 14 250 6.4 19.3 0.00 0.00 0.00 43 1014.3
20260503223304 14 270 4.8 16.1 0.00 0.00 0.00 45 1014.3
20260503222305 13 274 8.0 19.3 0.00 0.00 0.00 46 1014.5
20260503221806 13 272 8.0 16.1 0.00 0.00 0.00 44 1014.5
20260503221304 13 247 9.7 20.9 0.00 0.00 0.00 44 1014.5
20260503220804 14 267 11.3 20.9 0.00 0.00 0.00 44 1014.5
20260503220305 14 180 3.2 16.1 0.00 0.00 0.00 45 1014.4
20260503215804 14 258 4.8 19.3 0.00 0.00 0.00 47 1014.5
20260503215304 13 266 6.4 19.3 0.00 0.00 0.00 46 1014.5
20260503214805 14 279 11.3 19.3 0.00 0.00 0.00 44 1014.4
20260503214303 15 280 11.3 19.3 0.00 0.00 0.00 44 1014.4
20260503213804 15 267 6.4 14.5 0.00 0.00 0.00 45 1014.3
20260503213304 15 235 3.2 14.5 0.00 0.00 0.00 46 1014.3
20260503212804 14 272 6.4 16.1 0.00 0.00 0.00 47 1014.4
20260503212305 14 253 6.4 14.5 0.00 0.00 0.00 44 1014.3
20260503211805 15 225 8.0 19.3 0.00 0.00 0.00 42 1014.3
20260503211304 15 258 8.0 16.1 0.00 0.00 0.00 43 1014.4
20260503210804 15 240 4.8 14.5 0.00 0.00 0.00 45 1014.4
20260503210304 15 245 6.4 19.3 0.00 0.00 0.00 46 1014.4
20260503205804 14 265 8.0 20.9 0.00 0.00 0.00 47 1014.5
20260503205304 14 259 8.0 16.1 0.00 0.00 0.00 45 1014.5
20260503204303 14 246 6.4 20.9 0.00 0.00 0.00 46 1014.7
20260503203804 13 269 4.8 12.9 0.00 0.00 0.00 47 1014.6
20260503202304 14 279 11.3 24.1 0.00 0.00 0.00 46 1014.9
20260503201805 13 265 11.3 19.3 0.00 0.00 0.00 45 1014.9
20260503200804 13 280 11.3 32.2 0.00 0.00 0.00 44 1015.1
20260503200307 13 287 11.3 24.1 0.00 0.00 0.00 44 1015.1
20260503195804 13 277 8.0 16.1 0.00 0.00 0.00 45 1015.2
20260503195305 13 263 4.8 12.9 0.00 0.00 0.00 44 1015.3
20260503194804 14 302 9.7 19.3 0.00 0.00 0.00 42 1015.4
20260503194304 13 292 8.0 19.3 0.00 0.00 0.00 43 1015.5
20260503193805 13 279 6.4 12.9 0.00 0.00 0.00 45 1015.6
20260503193304 13 289 4.8 19.3 0.00 0.00 0.00 46 1015.6
20260503192804 13 247 9.7 22.5 0.00 0.00 0.00 48 1015.7
20260503192305 13 278 8.0 14.5 0.00 0.00 0.00 47 1015.9
20260503191804 13 285 11.3 20.9 0.00 0.00 0.00 46 1016.0
20260503191304 13 275 11.3 24.1 0.00 0.00 0.00 44 1015.9
20260503190804 13 259 11.3 20.9 0.00 0.00 0.00 47 1016.0
20260503190304 13 248 8.0 22.5 0.00 0.00 0.00 52 1016.0
20260503184803 13 266 11.3 22.5 0.00 0.00 0.00 46 1016.3
20260503184304 13 278 9.7 20.9 0.00 0.00 0.00 47 1016.2
20260503183804 13 272 4.8 12.9 0.00 0.00 0.00 51 1016.4
20260503183304 13 272 9.7 20.9 0.00 0.00 0.00 46 1016.4
20260503182804 13 256 9.7 16.1 0.00 0.00 0.00 47 1016.5
20260503182305 13 272 9.7 16.1 0.00 0.00 0.00 47 1016.6
20260503181804 13 272 8.0 19.3 0.00 0.00 0.00 46 1016.6
20260503181304 13 261 8.0 19.3 0.00 0.00 0.00 49 1016.6
20260503180804 13 280 11.3 22.5 0.00 0.00 0.00 48 1016.7
20260503180304 13 280 11.3 24.1 0.00 0.00 0.00 48 1016.8
20260503175804 12 282 11.3 32.2 0.00 0.00 0.00 47 1016.9
20260503175305 13 283 9.7 22.5 0.00 0.00 0.00 49 1017.0
20260503174804 12 246 8.0 25.7 0.00 0.00 0.00 48 1016.9
20260503173804 12 230 8.0 19.3 0.00 0.00 0.00 49 1017.2
20260503173304 12 258 9.7 24.1 0.00 0.00 0.00 49 1017.1
20260503172805 12 260 9.7 19.3 0.00 0.00 0.00 52 1017.2
20260503172305 12 288 8.0 25.7 0.00 0.00 0.00 49 1017.1
20260503171304 11 258 6.4 19.3 0.00 0.00 0.00 48 1017.3
20260503170805 11 262 11.3 16.1 0.00 0.00 0.00 47 1017.3
20260503170304 11 33 3.2 14.5 0.00 0.00 0.00 50 1017.5
20260503150805 10 284 8.0 19.3 0.00 0.00 0.00 54 1018.5
20260503150304 9 288 9.7 16.1 0.00 0.00 0.00 54 1018.5
20260503140304 7 44 3.2 16.1 0.00 0.00 0.00 67 1018.9
20260503131304 6 265 4.8 12.9 0.00 0.08 0.00 77 1019.1
20260503130806 5 278 4.8 11.3 0.00 0.08 0.00 78 1019.1
20260503130304 5 272 1.6 9.7 0.00 0.08 0.00 81 1019.1
20260503090304 -1 300 0.0 0.0 0.00 0.08 0.00 95 1017.7
20260503081304 0 300 0.0 0.0 0.00 0.10 0.00 93 1017.6
20260503080304 0 300 0.0 0.0 0.00 0.10 0.00 93 1017.7
20260503072305 0 300 0.0 0.0 0.00 0.10 0.00 92 1017.4
20260503071804 0 300 0.0 0.0 0.00 0.10 0.00 92 1017.4
20260503070804 0 300 0.0 0.0 0.00 0.10 0.00 91 1017.3
20260503070304 0 300 0.0 0.0 0.00 0.10 0.00 91 1017.4
20260503060304 1 300 0.0 0.0 0.00 0.10 0.00 91 1017.5
20260503054804 1 300 0.0 0.0 0.00 0.10 0.00 90 1017.6
20260503054304 1 300 0.0 0.0 0.00 0.10 0.00 90 1017.6
20260503052305 1 300 0.0 0.0 0.00 0.10 0.00 90 1017.7
20260503051806 1 300 0.0 0.0 0.00 0.10 0.00 90 1017.7
20260503051304 1 300 0.0 0.0 0.00 0.10 0.00 90 1017.8
20260503050806 1 300 0.0 0.0 0.00 0.10 0.00 90 1017.8
20260503050305 1 300 0.0 0.0 0.00 0.10 0.00 90 1017.8
20260503045804 1 300 0.0 0.0 0.00 0.10 0.00 90 1017.8
20260503045305 1 300 0.0 0.0 0.00 0.10 0.00 90 1017.8
20260503044804 1 300 0.0 0.0 0.00 0.10 0.00 90 1017.9
20260503044303 1 300 0.0 0.0 0.00 0.10 0.00 90 1017.8
20260503043304 1 300 0.0 0.0 0.00 0.10 0.00 89 1017.9
20260503042804 1 300 0.0 0.0 0.00 0.10 0.00 89 1018.0
20260503042305 1 300 0.0 0.0 0.00 0.10 0.00 89 1017.9
20260503041804 1 300 0.0 0.0 0.00 0.10 0.00 88 1018.0
20260503041304 1 300 0.0 0.0 0.00 0.10 0.00 88 1018.0
20260503040804 1 300 0.0 0.0 0.00 0.10 0.00 87 1018.0
20260503040304 1 300 0.0 0.0 0.00 0.10 0.00 87 1018.1
20260503035804 1 300 0.0 0.0 0.00 0.10 0.10 87 1018.0
20260503035305 1 300 0.0 0.0 0.00 0.10 0.10 87 1018.0
20260503034805 1 300 0.0 1.6 0.00 0.10 0.10 86 1018.1
20260503034305 1 300 0.0 0.0 0.00 0.10 0.10 85 1018.0
20260503033804 1 300 0.0 1.6 0.00 0.10 0.10 85 1018.0
20260503033304 2 300 0.0 1.6 0.00 0.10 0.10 85 1017.9
20260503032804 2 300 0.0 1.6 0.00 0.10 0.10 83 1017.8
20260503032304 2 300 0.0 0.0 0.00 0.10 0.10 82 1017.9
20260503031804 2 300 0.0 0.0 0.00 0.10 0.10 82 1017.9
20260503031304 2 300 0.0 1.6 0.00 0.10 0.10 81 1017.9